GPS Operational
NORAD ID: 22700
Int'l Code: 1993-042A
Perigee: 19,724.9 km
Apogee: 20,635.5 km
Inclination: 56.4 °
Period: 717.6 minutes
Semi major axis: 26551 km
Launch date: June 26, 1993
Source: United States (US)
PRN: 9
Two Line Element Set (TLE):
1 22700U 93042A 13142.82908237 -.00000045 00000-0 00000+0 0 135
2 22700 056.3836 339.7451 0171475 095.4065 266.5895 02.00667682145772
Source: AFSPC
NASA's NSSDC Master Catalog entry for NAVSTAR 33 (USA 92)